Regional Weather Roundup
Issued by NWS

Home | Current Version | Previous Version | Graphics & Text | Print | Product List | Glossary On
Versions: 1 2 3 4 5 6 7 8 9 10 11 12 13 14 15 16 17 18 19 20 21 22 23 24 25 26 27 28 29 30 31 32 33 34 35 36 37 38 39 40 41 42 43 44 45 46 47 48 49 50
000
ASUS43 KMKX 090521
RWRWI

WISCONSIN REGIONAL WEATHER ROUNDUP
NATIONAL WEATHER SERVICE MILWAUKEE/SULLIVAN WI
1100 PM CST THU DEC 08 2016

NOTE: "FAIR" INDICATES FEW OR NO CLOUDS BELOW 12,000 FEET WITH NO
SIGNIFICANT WEATHER AND/OR OBSTRUCTIONS TO VISIBILITY.

WIZ001-002-006>008-014>016-023>028-090600-
NORTHWEST WISCONSIN

CITY           SKY/WX    TMP DP  RH WIND       PRES   REMARKS
SUPERIOR ARPT  CLOUDY    17   9  71 NW9       30.47R WCI   6
ASHLAND        PTCLDY    17  10  74 NW8       30.42R WCI   7
HAYWARD        CLOUDY    19  11  70 VRB3      30.40R
SIREN          CLEAR     13   9  83 NW5       30.46R WCI   6
CUMBERLAND     CLEAR     16  10  79 NW8       30.42R WCI   5
RICE LAKE      CLEAR     18  12  78 W7        30.45R WCI   8
CHETEK         PTCLDY    19  12  76 NW6       30.43R WCI  10
LADYSMITH      CLOUDY    21  14  75 NW13      30.40R WCI   9
EAU CLAIRE     CLOUDY    21  14  74 NW9       30.43R WCI  11
MENOMONIE      FLURRIES  20  15  81 W12       30.45S WCI   8
NEW RICHMOND   FLURRIES  19  13  79 NW13      30.47R WCI   5
OSCEOLA        FLURRIES  19  13  79 W8        30.51S WCI   9
$$

WIZ003>005-009-010-017-018-090600-
NORTH CENTRAL WISCONSIN

CITY           SKY/WX    TMP DP  RH WIND       PRES   REMARKS
MANITOWISH WTR LGT SNOW  16  15  93 W5        30.29R WCI   9
ARBOR VITAE    CLOUDY    19  14  79 NW9       30.29R WCI   8
WOODRUFF       CLOUDY    19  14  79 NW9       30.29R WCI   8
RHINELANDER    CLOUDY    19  15  84 W8        30.29R WCI   9
EAGLE RIVER    CLOUDY    17  11  77 NW8       30.28R WCI   7
LAND O LAKES   PTCLDY    16  12  86 NW6       30.29R WCI   7
PHILLIPS       LGT SNOW  18  15  89 NW3       30.34R
TOMAHAWK       CLOUDY    18  14  84 W7        30.32R WCI   9
MEDFORD        CLOUDY    18  12  76 W7        30.34R WCI   9
MERRILL        MOCLDY    19  13  80 NW6       30.34R WCI  10
$$

WIZ029-030-035-036-043>047-090600-
CENTRAL WISCONSIN

CITY           SKY/WX    TMP DP  RH WIND       PRES   REMARKS
WAUSAU         CLEAR     19  12  74 W12       30.33R WCI   7
MOSINEE        CLEAR     19  14  79 W7        30.36R WCI  10
MARSHFIELD     CLEAR     19  11  70 W10       30.35R WCI   7
STEVENS POINT  MOCLDY    20  13  74 W8        30.36R WCI  10
WAUPACA        CLEAR     22  16  78 W5        30.37R WCI  16
WAUTOMA        FLURRIES  22  16  78 W7        30.39R WCI  13
WISC RAPIDS    PTCLDY    22  15  75 NW9       30.39R WCI  12
CAMP DOUGLAS   FLURRIES  22  18  82 W8        30.41R WCI  13
$$

WIZ011>013-019>022-031-037>040-048>050-090600-
NORTHEAST WISCONSIN

CITY           SKY/WX    TMP DP  RH WIND       PRES   REMARKS
ANTIGO         MOCLDY    17  13  82 NW9G17    30.29R WCI   6
SHAWANO        CLEAR     24  16  71 W7        30.34R WCI  16
OCONTO         CLOUDY    22  16  78 NW3       30.32R
STURGEON BAY   MOCLDY    26  18  71 NW16      30.30R WCI  14
GREEN BAY      CLEAR     23  18  81 W8        30.34R WCI  14
MANITOWOC      CLEAR     24  18  77 MISG      30.33R
APPLETON       CLEAR     21  14  73 W10       30.32R WCI  10
CLINTONVILLE   PTCLDY    23  14  68 NW7       30.34R WCI  15
OSHKOSH        CLEAR     22  14  71 W10       30.35R WCI  11
$$

WIZ032>034-041-042-053>061-090600-
SOUTHWEST WISCONSIN

CITY           SKY/WX    TMP DP  RH WIND       PRES   REMARKS
LA CROSSE      CLOUDY    24  16  71 NW12      30.47R WCI  13
SPARTA         FLURRIES  22  18  83 W8        30.44R WCI  13
VIROQUA        CLOUDY    20  16  82 NW8       30.41R WCI  11
BOSCOBEL       FLURRIES  24  17  74 W9        30.47R WCI  14
PRAIRIE DU CHI CLOUDY    22  14  71 W8        30.49R WCI  12
PLATTEVILLE    CLOUDY    21  17  86 W12       30.44S WCI   9
$$

WIZ056-057-062-063-064-067-068-090600-
SOUTH CENTRAL WISCONSIN

CITY           SKY/WX    TMP DP  RH WIND       PRES   REMARKS
REEDSBURG      FLURRIES  23  18  83 W9        30.41R WCI  13
BARABOO/DELLS  CLOUDY    23  17  78 W8        30.40R WCI  14
LONE ROCK      FLURRIES  24  17  74 W9        30.44R WCI  14
MINERAL POINT  FLURRIES  23  19  86 W14       30.41R WCI  11
MADISON        MOCLDY    21  16  81 W7        30.39R WCI  12
MIDDLETON      CLOUDY    24  19  81 NW10      30.40R WCI  13
WATERTOWN      CLOUDY    22  18  85 W6        30.38R WCI  14
MONROE         PTCLDY    21  18  86 W15G21    30.40R WCI   8
JANESVILLE     CLEAR     21  19  93 W7        30.40S WCI  13
$$

WIZ051-052-058>065-066-070>072-090600-
SOUTHEAST WISCONSIN

CITY           SKY/WX    TMP DP  RH WIND       PRES   REMARKS
MILWAUKEE      MOCLDY    25  15  66 W13       30.36R WCI  14
WAUKESHA       CLOUDY    21  18  86 W14       30.37R WCI   8
MILWAUKEE/TIMM CLEAR     23  16  74 W12       30.37R WCI  12
RACINE         CLOUDY    24  15  68 W13G22    30.38R WCI  12
BURLINGTON     MOCLDY    26  22  85 W12       30.38R WCI  15
KENOSHA        CLOUDY    22  16  78 W15       30.37R WCI   9
FOND DU LAC    CLOUDY    23  14  68 NW12      30.36R WCI  12
SHEBOYGAN      PTCLDY    23  16  74 NW12      30.33R WCI  12
WEST BEND      CLOUDY    25  19  80 NW14G20   30.35R WCI  13
JUNEAU         CLOUDY    22  16  79 W5        30.38R WCI  16
$$

LSZ147-162-090600-
LAKE SUPERIOR

STATION/POSITION TIME  TEMP    WIND        PRES    WAVE
                       AIR SEA DIR/SP/G            HT/PER
                 (UTC) (F)     (DEG/KT/KT) (MB)    (FT/S)
DEVILS ISLAND    0500   20     360/ 18/ 22 1031.1R
PORT WING        0430   22     350/ 21/ 24 1030.5R
SAXON HARBOR     0440   24     340/ 19/ 23 1028.4R
$$

LMZ867-665-643>646-090600-
LAKE MICHIGAN

STATION/POSITION TIME  TEMP    WIND        PRES    WAVE
                       AIR SEA DIR/SP/G            HT/PER
                 (UTC) (F)     (DEG/KT/KT) (MB)    (FT/S)
CHAMBERS ISLAND  0440   26     300/  8/ 12 1025.1R
NORTHPORT PIER   0442   29     300/ 21     1024.7R
SISTER BAY       0450   28     360/ 24/ 30   N/A
ALGOMA LAKESHORE 0351          320/ 11/ 17   N/A
KEWAUNEE LAKESHO 0454   25     320/  4/  8 1025.7R
SHEBOYGAN LAKESH 0500   24     300/ 15/ 19 1027.9R
PORT WASHINGTON  0440   25     300/ 10/ 16 1028.1R
MILWAUKEE LAKESH 0500   24     290/ 12/ 14   N/A
KENOSHA   LAKESH 0500   24     280/ 15/ 20 1028.1
$$

TC  - TEMPERATURE IN CELSIUS
VSB - VISIBILITY IN STATUTE MILES
WCI - WIND CHILL INDEX
HX  - HEAT INDEX





USA.gov is the U.S. government's official web portal to all federal, state and local government web resources and services.